Flag for U.S.A. Weather past 2 weeks in Irving, Texas, U.S.A.

Now
55 °F

Overcast.


Feels Like: 52 °F
Forecast: 37 / 58 °F
Wind: 9 mph from South

Location: Dallas / Fort Worth International Airport

Current Time: Feb 1, 2015 at 3:27:14 AM

Latest Report: Feb 1, 2015 at 2:53 AM


Visibility: 9 mi

Pressure: 29.83 "Hg

Humidity: 96%

Dew point: 54 °F

Location of IrvingLocation

Historic Weather in Irving — Graph

°F

Irving temperature yesterday

Maximum temperature yesterday: 53 °F (at 11:53 PM)
Minimum temperature yesterday: 47 °F (at 6:53 AM)
Average temperature yesterday: 49 °F

Past Weeks' High & Low Weather Summary

 TemperatureHumidityPressure
High79 °F (Jan 28, 1:53 PM)100% (Feb 1, 1:53 AM)30.50 "Hg (Feb 1, 1:53 AM)
Low33 °F (Jan 24, 5:53 AM)18% (Jan 18, 2:53 PM)29.85 "Hg (Feb 1, 1:53 AM)
Average52 °F56%30.13 "Hg
* Reported Jan 17 1:53 AM — Feb 1 1:53 AM, Irving, Weather by CustomWeather, © 2014

Note: Actual official high and low records may vary slightly from our data, if they occured in-between our weather recording intervals... More about our weather records

Advertising

Irving weather history for previous 24 hours

 ConditionsComfort  
Time TempWeatherWind HumidityBarometerVisibility
1:53 AM
Feb 1
54 °FFog.7 mph100%29.85 "Hg6 mi
12:53 AM54 °FLight rain. Fog.10 mph97%29.85 "Hg6 mi
11:53 PM
Jan 31
53 °FLight rain. Fog.14 mph96%29.86 "Hg5 mi
10:53 PM52 °FLight rain. Mostly cloudy.15 mph93%29.88 "Hg7 mi
9:53 PM51 °FLight rain. Fog.13 mph92%29.89 "Hg5 mi
8:53 PM50 °FLight rain. Fog.12 mph96%29.92 "Hg4 mi
7:53 PM50 °FRain. Fog.13 mph96%29.94 "Hg2 mi
6:53 PM49 °FLight rain. Fog.9 mph97%29.95 "Hg3 mi
5:53 PM49 °FRain. Fog.3 mph93%29.98 "Hg2 mi
4:53 PM48 °FLight rain. Fog.5 mph93%29.99 "Hg4 mi
3:53 PM48 °FRain. Fog.5 mph89%30.00 "Hg2 mi
2:53 PM51 °FLight rain. Overcast.13 mph66%30.01 "Hg1 mi
1:53 PM52 °FOvercast.13 mph59%30.03 "Hg10 mi
12:53 PM52 °FLight rain. Overcast.12 mph57%30.08 "Hg10 mi
11:53 AM51 °FMostly cloudy.12 mph52%30.13 "Hg10 mi
10:53 AM49 °FMostly cloudy.14 mph55%30.17 "Hg10 mi
9:53 AM48 °FMostly cloudy.14 mph54%30.20 "Hg10 mi
8:53 AM47 °FCloudy.17 mph56%30.18 "Hg10 mi
7:53 AM47 °FMore clouds than sun.13 mph56%30.19 "Hg10 mi
6:53 AM47 °FOvercast.12 mph54%30.19 "Hg10 mi
5:53 AM48 °FOvercast.9 mph52%30.20 "Hg10 mi
4:53 AM48 °FMostly cloudy.12 mph52%30.20 "Hg10 mi
3:53 AM48 °FPassing clouds.9 mph50%30.20 "Hg10 mi
Weather by CustomWeather, © 2014

See weather overviewHow to use our weather pages